Location: Malanoce
(44.2500°N, 7.4667°E)
Time: 22:35:26
(UTC+00:00)

YAOGAN 1 - Pass Details

Date: 17 November 2025
Orbit: 605 x 607 km, 97.8° (Epoch: 12 December)

Event Time Altitude Azimuth Distance (km) Brightness Sun altitude
Rises 16:29:31 0° 114° (ESE) 2,859 5.5 -5.5°
Reaches altitude 10° 16:32:56 10° 84° (E) 1,961 4.5 -6.0°
Maximum altitude 16:34:37 12° 61° (ENE) 1,821 4.3 -6.3°
Drops below altitude 10° 16:36:18 10° 37° (NE) 1,966 4.6 -6.6°
Sets 16:39:44 0° 8° (N) 2,876 5.7 -7.2°
